Bogalusa, LA

2:42 PM CDT on July 22, 2017 (GMT -0500)
Carr Memorial

Weather History for KBXA - November, 2013

Change the Weather History Date:

Tuesday, November 12, 2013

  Actual Average Record
Temperature  
Mean Temperature 56 °F -  
Max Temperature 72 °F 69 °F 73 °F (2016)
Min Temperature 39 °F 45 °F 39 °F (2013)
Degree Days  
Heating Degree Days 9    
Growing Degree Days 6 (Base 50)    
Moisture  
Dew Point 44 °F    
Average Humidity 73    
Maximum Humidity 91    
Minimum Humidity 45    
Precipitation  
Precipitation 0.00 in - - ()
Sea Level Pressure  
Sea Level Pressure 30.33 in    
Wind  
Wind Speed 6 mph (NNE)    
Max Wind Speed 24 mph    
Max Gust Speed 30 mph    
Visibility 10 miles    
Events      
Averages and records for this station are not official NWS values.
T = Trace of Precipitation, MM = Missing Value Source: NWS Daily Summary

Daily Weather History Graph

Daily Weather History Graph

Search for Another Location

Airport or City:

Trip Planner

Search our weather history database for the weather conditions in past years. The results will help you decide how hot, cold, wet, or windy it might be!

Date:

Astronomy

Nov. 12, 2013 Rise Set
Actual Time 6:23 AM CST 5:03 PM CST
Civil Twilight 5:58 AM CST 5:28 PM CST
Nautical Twilight 5:29 AM CST 5:57 PM CST
Astronomical Twilight 5:00 AM CST 6:26 PM CST
Moon 2:00 PM CST (11/12) 1:32 AM CST (11/12)
Length of Visible Light 11h 30m
Length of Day
10h 39m
Waxing Gibbous, 76% of the Moon is Illuminated
Nov 12
Waxing Gibbous
Nov 17
Full
Nov 25
Last Quarter
Dec 2
New
Dec 9
First Quarter

Hourly Weather History & Observations

Time (CST) Temp. Windchill Dew Point Humidity Pressure Visibility Wind Dir Wind Speed Gust Speed Precip Events Conditions
12:15 AM 50.2 °F - 47.1 °F 89% 30.21 in 10.0 mi Calm Calm - N/A   Clear
12:35 AM 49.5 °F - 46.6 °F 90% 30.21 in 10.0 mi Calm Calm - N/A   Clear
12:55 AM 49.3 °F - 46.6 °F 90% 30.21 in 10.0 mi Calm Calm - N/A   Clear
1:15 AM 47.8 °F - 45.3 °F 91% 30.21 in 10.0 mi Calm Calm - N/A   Unknown
1:35 AM 47.3 °F - 44.8 °F 91% 30.21 in 10.0 mi Calm Calm - N/A   Clear
1:55 AM 47.3 °F - 44.8 °F 91% 30.21 in 4.0 mi Calm Calm - N/A   Clear
2:15 AM 47.1 °F - 44.6 °F 91% 30.21 in 10.0 mi Calm Calm - N/A   Unknown
2:35 AM 46.8 °F - 43.9 °F 90% 30.22 in 10.0 mi Calm Calm - N/A   Unknown
2:55 AM 46.2 °F - 43.3 °F 90% 30.22 in 10.0 mi Calm Calm - N/A   Unknown
3:15 AM 47.3 °F - 44.8 °F 91% 30.22 in 10.0 mi Calm Calm - N/A   Unknown
3:35 AM 46.4 °F - 43.7 °F 90% 30.22 in 7.0 mi Calm Calm - N/A   Unknown
3:55 AM 46.6 °F - 44.1 °F 91% 30.22 in 10.0 mi Calm Calm - N/A   Unknown
4:15 AM 46.0 °F - 43.3 °F 90% 30.22 in 10.0 mi Calm Calm - N/A   Unknown
4:35 AM 45.5 °F - 42.8 °F 90% 30.23 in 10.0 mi Calm Calm - N/A   Unknown
4:55 AM 46.4 °F - 43.7 °F 90% 30.23 in 10.0 mi Calm Calm - N/A   Unknown
5:15 AM 45.7 °F - 43.0 °F 90% 30.24 in 10.0 mi Calm Calm - N/A   Unknown
5:35 AM 45.0 °F - 42.3 °F 90% 30.24 in 10.0 mi Calm Calm - N/A   Unknown
5:55 AM 45.3 °F - 42.8 °F 91% 30.24 in 7.0 mi Calm Calm - N/A   Unknown
6:15 AM 45.1 °F 43.7 °F 42.8 °F 91% 30.25 in 7.0 mi North 3.5 mph - N/A   Unknown
6:35 AM 45.5 °F - 43.0 °F 91% 30.26 in 7.0 mi Calm Calm - N/A   Unknown
6:55 AM 46.4 °F - 43.9 °F 91% 30.27 in 10.0 mi Calm Calm - N/A   Unknown
7:15 AM 47.3 °F - 44.8 °F 91% 30.27 in 10.0 mi North 3.5 mph - N/A   Unknown
7:35 AM 50.0 °F - 47.3 °F 90% 30.28 in 10.0 mi North 4.6 mph - N/A   Unknown
7:55 AM 52.7 °F - 49.1 °F 88% 30.29 in 10.0 mi North 3.5 mph - N/A   Unknown
8:15 AM 55.2 °F - 49.8 °F 82% 30.29 in 10.0 mi North 3.5 mph - N/A   Unknown
8:35 AM 57.7 °F - 51.3 °F 79% 30.29 in 10.0 mi NNE 3.5 mph - N/A   Unknown
8:55 AM 59.7 °F - 52.3 °F 77% 30.30 in 10.0 mi NNE 4.6 mph - N/A   Unknown
9:15 AM 63.0 °F - 52.7 °F 69% 30.30 in 10.0 mi NNE 5.8 mph - N/A   Unknown
9:35 AM 65.3 °F - 51.4 °F 61% 30.30 in 10.0 mi NNE 10.4 mph - N/A   Unknown
9:55 AM 66.2 °F - 51.4 °F 59% 30.30 in 10.0 mi North 6.9 mph - N/A   Unknown
10:15 AM 68.0 °F - 51.8 °F 56% 30.30 in 10.0 mi NNE 9.2 mph - N/A   Unknown
10:35 AM 68.9 °F - 51.1 °F 53% 30.30 in 10.0 mi North 15.0 mph 21.9 mph N/A   Unknown
10:55 AM 69.4 °F - 50.9 °F 52% 30.30 in 10.0 mi NNE 12.7 mph - N/A   Unknown
11:15 AM 70.0 °F - 51.1 °F 51% 30.29 in 10.0 mi NNE 13.8 mph 21.9 mph N/A   Clear
11:35 AM 71.4 °F - 52.2 °F 51% 30.29 in 10.0 mi NNE 11.5 mph 18.4 mph N/A   Clear
11:55 AM 71.6 °F - 51.1 °F 48% 30.28 in 10.0 mi North 15.0 mph 23.0 mph N/A   Unknown
12:15 PM 72.7 °F - 51.6 °F 47% 30.27 in 10.0 mi North 11.5 mph 19.6 mph N/A   Unknown
12:35 PM 72.5 °F - 50.0 °F 45% 30.27 in 10.0 mi North 19.6 mph 25.3 mph N/A   Unknown
12:55 PM 70.7 °F - 49.5 °F 47% 30.28 in 10.0 mi North 16.1 mph 26.5 mph N/A   Unknown
1:15 PM 68.5 °F - 51.3 °F 54% 30.29 in 10.0 mi North 21.9 mph 26.5 mph N/A   Unknown
1:35 PM 64.8 °F - 50.0 °F 59% 30.31 in 10.0 mi North 24.2 mph 29.9 mph N/A   Unknown
1:55 PM 61.2 °F - 49.1 °F 65% 30.31 in 10.0 mi North 21.9 mph 27.6 mph N/A   Unknown
2:15 PM 58.3 °F - 49.1 °F 71% 30.33 in 10.0 mi North 11.5 mph 26.5 mph N/A   Unknown
2:35 PM 57.4 °F - 49.1 °F 74% 30.33 in 10.0 mi NNE 15.0 mph 24.2 mph N/A   Unknown
2:55 PM 57.6 °F - 48.2 °F 71% 30.34 in 10.0 mi North 16.1 mph 23.0 mph N/A   Unknown
3:15 PM 57.6 °F - 48.2 °F 71% 30.34 in 10.0 mi North 13.8 mph 19.6 mph N/A   Overcast
3:35 PM 57.6 °F - 48.2 °F 71% 30.34 in 10.0 mi North 12.7 mph 19.6 mph N/A   Mostly Cloudy
3:55 PM 57.9 °F - 46.4 °F 65% 30.34 in 10.0 mi NNE 15.0 mph 25.3 mph N/A   Scattered Clouds
4:15 PM 58.1 °F - 44.8 °F 61% 30.34 in 10.0 mi North 15.0 mph 25.3 mph N/A   Scattered Clouds
4:35 PM 57.0 °F - 44.8 °F 64% 30.35 in 10.0 mi North 9.2 mph 20.7 mph N/A   Scattered Clouds
4:55 PM 55.8 °F - 43.3 °F 63% 30.36 in 10.0 mi North 16.1 mph 23.0 mph N/A   Mostly Cloudy
5:15 PM 54.1 °F - 42.4 °F 65% 30.37 in 10.0 mi North 18.4 mph - N/A   Unknown
5:35 PM 52.7 °F - 41.5 °F 66% 30.39 in 10.0 mi North 15.0 mph 23.0 mph N/A   Unknown
5:55 PM 51.4 °F - 41.0 °F 68% 30.40 in 10.0 mi North 15.0 mph 21.9 mph N/A   Unknown
6:15 PM 50.7 °F - 40.3 °F 67% 30.41 in 10.0 mi North 11.5 mph 20.7 mph N/A   Unknown
6:35 PM 50.2 °F - 40.3 °F 69% 30.42 in 10.0 mi North 11.5 mph 21.9 mph N/A   Unknown
6:55 PM 50.0 °F - 38.8 °F 66% 30.44 in 10.0 mi North 13.8 mph 25.3 mph N/A   Unknown
7:15 PM 48.9 °F - 37.2 °F 64% 30.45 in 10.0 mi NNE 15.0 mph 25.3 mph N/A   Unknown
7:35 PM 47.8 °F - 36.7 °F 65% 30.46 in 10.0 mi NNE 12.7 mph 17.3 mph N/A   Unknown
7:55 PM 47.3 °F - 36.0 °F 65% 30.48 in 10.0 mi NNE 11.5 mph 23.0 mph N/A   Unknown
8:15 PM 46.6 °F - 36.0 °F 67% 30.49 in 10.0 mi NNE 15.0 mph 20.7 mph N/A   Unknown
8:35 PM 45.7 °F 39.8 °F 35.2 °F 67% 30.50 in 10.0 mi NNE 12.7 mph 16.1 mph N/A   Unknown
8:55 PM 45.0 °F 38.5 °F 34.7 °F 67% 30.50 in 10.0 mi NNE 13.8 mph 19.6 mph N/A   Unknown
9:15 PM 44.4 °F 38.6 °F 34.2 °F 67% 30.51 in 10.0 mi North 11.5 mph 20.7 mph N/A   Unknown
9:35 PM 43.7 °F 37.3 °F 34.2 °F 69% 30.51 in 10.0 mi NNE 12.7 mph 17.3 mph N/A   Unknown
9:55 PM 42.8 °F 37.0 °F 33.4 °F 70% 30.51 in 10.0 mi North 10.4 mph - N/A   Unknown
10:15 PM 42.3 °F 35.1 °F 33.3 °F 70% 30.51 in 10.0 mi NNE 13.8 mph - N/A   Unknown
10:35 PM 41.9 °F 36.3 °F 32.4 °F 69% 30.51 in 10.0 mi NNE 9.2 mph 19.6 mph N/A   Unknown
10:55 PM 41.5 °F 35.4 °F 32.0 °F 69% 30.51 in 10.0 mi NNE 10.4 mph 19.6 mph N/A   Unknown
11:15 PM 41.0 °F 33.9 °F 31.6 °F 69% 30.51 in 10.0 mi NNE 12.7 mph - N/A   Unknown
11:35 PM 40.3 °F 34.4 °F 31.1 °F 70% 30.51 in 10.0 mi NNE 9.2 mph 17.3 mph N/A   Unknown
11:55 PM 39.9 °F 33.4 °F 30.6 °F 69% 30.51 in 10.0 mi NNE 10.4 mph - N/A   Unknown